DW0465 Weather Reports


Display with metric or nautical units.
time (UTC)temp
F
wind
direction
speed
MPH
gust
MPH
rain 1hr
in
rain 24hr
in
rain mn
in
humidity
%
barometer
mb
20260504044555 48 201 0.0 0.0 0.00 0.00 0.00 48 1004.4
20260504043058 49 224 0.0 1.0 0.00 0.00 0.00 49 1004.4
20260504041549 50 212 0.0 0.0 0.00 0.00 0.00 49 1004.4
20260504040111 51 178 0.0 0.0 0.00 0.00 0.00 45 1004.4
20260504034549 51 167 0.0 0.0 0.00 0.00 0.00 45 1004.3
20260504033050 52 162 0.0 0.0 0.00 0.00 0.00 43 1004.3
20260504031556 52 159 0.0 0.0 0.00 0.00 0.00 40 1004.1
20260504030047 54 156 0.0 0.0 0.00 0.00 0.00 36 1003.8
20260504024548 54 159 0.0 0.0 0.00 0.00 0.00 37 1003.7
20260504023046 57 128 0.0 0.0 0.00 0.00 0.00 34 1003.5
20260504021546 59 94 0.0 0.0 0.00 0.00 0.00 40 1003.5
20260504020055 62 94 0.0 0.0 0.00 0.00 0.00 33 1003.4
20260504014545 64 94 0.0 0.0 0.00 0.00 0.00 25 1003.4
20260504013045 65 94 0.0 0.0 0.00 0.00 0.00 24 1003.4
20260504011542 65 94 0.0 0.0 0.00 0.00 0.00 25 1003.6
20260504010039 64 94 0.0 0.0 0.00 0.00 0.00 28 1003.7
20260504004539 65 94 0.0 0.0 0.00 0.00 0.00 27 1003.7
20260504003036 65 94 0.0 0.0 0.00 0.00 0.00 26 1003.9
20260504001543 66 144 0.0 0.0 0.00 0.00 0.00 24 1004.0
20260504000033 65 146 0.0 0.0 0.00 0.00 0.00 25 1004.3
20260503234549 66 146 0.0 0.0 0.00 0.00 0.00 24 1004.3
20260503233038 67 34 0.0 0.0 0.00 0.00 0.00 23 1004.4
20260503231534 67 5 0.0 1.0 0.00 0.00 0.00 23 1004.5
20260503230029 66 355 0.0 0.0 0.00 0.00 0.00 24 1004.7
20260503224528 66 49 0.0 1.0 0.00 0.00 0.00 25 1004.8
20260503223026 66 92 0.0 1.0 0.00 0.00 0.00 25 1004.8
20260503221529 66 46 0.0 1.0 0.00 0.00 0.00 26 1005.0
20260503220024 66 10 0.0 2.0 0.00 0.00 0.00 26 1005.2
20260503214521 66 37 0.0 1.0 0.00 0.00 0.00 26 1005.6
20260503213023 65 330 0.0 1.0 0.00 0.00 0.00 27 1005.6
20260503211518 63 289 0.0 2.0 0.00 0.00 0.00 25 1005.9
20260503210018 63 360 0.0 0.0 0.00 0.00 0.00 27 1006.0
20260503204523 63 42 0.0 2.0 0.00 0.00 0.00 30 1006.0
20260503203018 64 5 0.0 0.0 0.00 0.00 0.00 26 1005.9
20260503201516 66 342 0.0 0.0 0.00 0.00 0.00 25 1006.0
20260503200015 66 336 0.0 1.0 0.00 0.00 0.00 26 1006.2
20260503194515 66 48 0.0 1.0 0.00 0.00 0.00 25 1006.4
20260503193012 66 135 0.0 2.0 0.00 0.00 0.00 23 1006.4
20260503191509 67 148 0.0 1.0 0.00 0.00 0.00 25 1006.6
20260503190005 66 184 0.0 0.0 0.00 0.00 0.00 25 1006.9
20260503184510 65 200 0.0 1.0 0.00 0.00 0.00 25 1007.3
20260503183100 63 350 0.0 1.0 0.00 0.00 0.00 26 1007.5
20260503181657 63 75 0.0 1.0 0.00 0.00 0.00 28 1007.6
20260503180100 62 328 0.0 1.0 0.00 0.00 0.00 26 1007.9
20260503174551 63 11 0.0 2.0 0.00 0.00 0.00 28 1008.1
20260503173046 62 46 0.0 1.0 0.00 0.00 0.00 28 1008.3
20260503171546 61 26 0.0 2.0 0.00 0.00 0.00 28 1008.3
20260503081505 43 197 0.0 0.0 0.00 0.00 0.00 56 1010.2
20260503071613 45 197 0.0 1.0 0.00 0.00 0.00 52 1010.5
20260503060108 45 191 0.0 0.0 0.00 0.00 0.00 51 1010.6
20260503054557 45 184 0.0 0.0 0.00 0.00 0.00 50 1010.7
20260503053047 46 200 0.0 0.0 0.00 0.00 0.00 48 1010.7
20260503051546 47 215 0.0 0.0 0.00 0.00 0.00 45 1010.6
20260503050045 47 207 0.0 3.0 0.00 0.00 0.00 45 1010.5